Regional Weather Roundup
Issued by NWS Pendleton, OR

Home | Current Version | Previous Version | Text Only | Print | Product List | Glossary On
Versions: 1 2 3 4 5 6 7 8 9 10 11 12 13 14 15 16 17 18 19 20 21 22 23 24 25 26 27 28 29 30 31 32 33 34 35 36 37 38 39 40 41 42 43 44 45 46 47 48 49 50
371
ASUS46 KPDT 200125
RWRPDT
PENDLETON REGIONAL WEATHER ROUNDUP
NATIONAL WEATHER SERVICE PENDLETON OREGON
600 PM PDT THU APR 19 2018

NOTE: FAIR INDICATES FEW OR NO CLOUDS BELOW 12,000 FEET WITH NO
SIGNIFICANT WEATHER AND/OR OBSTRUCTIONS TO VISIBILITY.

# INDICATES UNOFFICIAL STATION AND DATA

WAZ520-200210-
EAST SLOPES OF WASHINGTON CASCADES

CITY            SKY/WX      TMP DP  RH  WIND    PRES   REMARKS
#BULLFROG       N/A         55  34  45  W8      N/A
#CLE ELUM HS    N/A         55  32  41  NW5     30.10S
#EASTON DOT     N/A         50  34  54  N1      N/A
#ELK HTS DOT    N/A         55  55  100 SW5     N/A
#GLENWOOD       N/A         60  37  42  W2      30.16S
#NELSON 3SW     N/A         50  37  61  CALM    30.40S
#NILE           N/A         58  35  42  W3      29.46F
#TEANAWAY 4NE   N/A         56  34  43  SW2     N/A
#TROUT LAKE 1NE N/A         57  37  47  NW8     30.18S
#TROUT LAKE 1E  N/A         59  38  45  NW1     30.19S
$$

WAZ521-200210-
SIMCOE HIGHLANDS

CITY            SKY/WX      TMP DP  RH  WIND    PRES   REMARKS
#BICKLETON HS   N/A         54  32  43  SW7     29.80R
#SATUS PASS DOT N/A         57  22  25  CALM    N/A
#CENTERVILLE 1SWN/A         59  38  45  W14     30.12S
#GOLDENDALE 1NE N/A         65   7  10  W6      N/A
#GOLDENDALE 4W  N/A         63  14  15  W10     30.17S
#GOODNOE HILLS  N/A         65  34  31  SW14    30.05F
#LYLE 6NE       N/A         60  40  47  SW10    30.18S
#PITT 4SE       N/A         57  39  51  CALM    30.19F
$$

WAZ026-200210-
KITTITAS VALLEY

CITY            SKY/WX      TMP DP  RH  WIND    PRES   REMARKS
ELLENSBURG AP   MOCLDY      60  34  37  NW16    30.14R
#ELLENSBURG CWU N/A         59  34  39  NW15    30.08S
#ELLENSBURG 3NE N/A         58  36  44  N7      28.20F
#ELLENSBURG 1E  N/A         59  35  40  NW2     30.19S
#KITTITAS 3S    N/A         59  37  44  W10     30.13S
#MANASTASH RDG  N/A         56  55  96  NW10    N/A
#ROCKY CYN DOT  N/A         59  32  36  W13     N/A
#RYEGRASS DOT   N/A         57  27  31  CALM    N/A
$$

WAZ027-200210-
YAKIMA VALLEY

CITY            SKY/WX      TMP DP  RH  WIND    PRES   REMARKS
SUNNYSIDE AP    SUNNY       65  33  30  CALM    30.12F
YAKIMA AIRPORT  PTCLDY      69  30  23  W7      30.12S
YAKIMA-VAGABOND PTCLDY      65  29  26  NW5     30.10F
#DONALD 2NE     N/A         72  12  10  W3      28.96F
#GRANDVIEW      N/A         66  26  22  SW2     30.14S
#MABTON         N/A         66  34  30  CALM    30.12F
#MOXEE 2E       N/A         37  N/A N/A SW12    29.79S WCI 29
#NACHES 2SW     N/A         63  34  34  W7      30.14S
#OUTLOOK DOT    N/A         67  27  22  CALM    30.09F
#PARKER DOT     N/A         67  28  23  E3      30.12S
#TERRACE HTS    N/A         68  35  29  CALM    30.08F
#TOPPENISH      N/A         67  34  29  CALM    30.03F
#I82 S UMTANUM RN/A         62  26  25  W6      N/A
#UNION GAP DOT  N/A         68  29  23  CALM    30.15S
#W YAKIMA       N/A         64  34  33  S3      30.12F
#WHITE SWAN 5E  N/A         66  34  30  CALM    30.12F
#WILEY CITY 3W  N/A         63  32  31  W1      30.10S
#ZILLAH DOT     N/A         68  28  22  W3      N/A
$$

WAZ028-200210-
LOWER COLUMBIA BASIN...WASHINGTON

CITY            SKY/WX      TMP DP  RH  WIND    PRES   REMARKS
PASCO           SUNNY       68  31  25  VRB5    30.14S
PROSSER AWOS    N/A         66  32  28  W5      30.16S
RICHLAND AWOS   SUNNY       69  31  24  CALM    30.13F
#BASIN CITY 5SW N/A         68  40  36  CALM    30.10F
#BENTON CITY    N/A         66  32  28  CALM    30.03F
#CONNELL 5N     N/A         65  36  34  W2      30.13S
#CONNELL 5NW    N/A         64  34  33  W3      30.08S
#ELTOPIA 6NW    N/A         66  34  30  CALM    29.10S
#KAHLOTUS       N/A         63  33  32  N7      30.12R
#KENNEWICK 3S   N/A         67  34  29  CALM    30.14S
#PROSSER DOT    N/A         68  28  22  CALM    30.14F
#SAGEMOOR 2W    N/A         66  33  29  CALM    29.98F
#TOUCHET 2S     N/A         66  38  36  NW6     30.11S
$$

WAZ029-200210-
FOOTHILLS OF THE BLUES...WASHINGTON

CITY            SKY/WX      TMP DP  RH  WIND    PRES   REMARKS
WALLA WALLA AP  SUNNY       65  32  29  CALM    30.13S
#CLYDE 6NW      N/A         64  33  31  NW7     30.11R
#DELANEY DOT    N/A         67  27  22  W5      30.13S
#LOWDEN 2SE     N/A         67  35  30  NW3     30.09S
#PLEASANT VIEW 1N/A         62  31  31  W7      30.16S
#PRESCOTT       N/A         69  35  28  CALM    30.10S
#WHITMAN COLLEGEN/A         64  35  34  SW3     30.17S
#WAITSBURG 5S   N/A         61  39  44  CALM    30.23R
#WAITSBURG 6SSE N/A         62  32  32  W1      29.96S
#WAITSBURG 8N   N/A          0  N/A N/A NW7     29.88S
#WALLA WALLA 5E N/A         64  36  35  W5      N/A
#WHITMAN MISSIONN/A         67  39  36  SW1     30.13S
$$

WAZ030-200210-
BLUE MOUNTAINS...WASHINGTON

CITY            SKY/WX      TMP DP  RH  WIND    PRES   REMARKS
#DIXIE 5SE      N/A         55  31  40  NW7     30.06S
$$

ORZ009-041-WAZ024-200210-
COLUMBIA RIVER GORGE

CITY            SKY/WX      TMP DP  RH  WIND    PRES   REMARKS
HOOD RIVER AP   PTCLDY      63  34  34  CALM    30.17S
THE DALLES AP   PTCLDY      69  36  30  NW15    30.14S
#ARLINGTON AIRPON/A         65  37  35  SW5     30.15F
#CELILO DOT     N/A         68  33  27  SW8     N/A
#LYLE           N/A         65  40  40  W12     30.16S
#MARYHILL       N/A         64  35  34  N16     29.99
#MURDOCK        N/A         64  42  45  NW9     30.11S
#RUFUS DOT      N/A         68  N/A N/A W13     N/A

$$

ORZ510-200210-
NORTH CENTRAL OREGON

CITY            SKY/WX      TMP DP  RH  WIND    PRES   REMARKS
#ANTELOPE       N/A         55  32  41  N5      30.09S
#CHENOWITH 1W   N/A         59  38  45  W17     N/A
#COW CYN RST AREN/A         55  N/A N/A NE6     N/A
#DUFUR          N/A         62  39  43  N5      30.13F
#DUFUR 9E       N/A         57  35  43  W10     30.23F
#GRASS VALLEY 1SN/A         58  35  42  W6      30.17S
#KENT DOT       N/A         57  21  24  N7      N/A
#MAUPIN SCHOOL  N/A         63  37  38  N1      30.20S
#SHANIKO 5WSW   N/A         53  30  41  NW3     N/A
#SHANIKO 4NW    N/A         51  29  42  N7      30.17F
#TYGH VALLEY 2NEN/A         63  38  39  CALM    30.15S
#WAPANITIA AIRPON/A         59  35  40  CALM    30.19S
#WASCO DOT      N/A         65  32  29  W10     N/A
#WASCO 5NE      N/A         61  37  41  SW5     30.15S
$$

ORZ511-200210-
CENTRAL OREGON

CITY            SKY/WX      TMP DP  RH  WIND    PRES   REMARKS
BEND AIRPORT    SUNNY       57  27  31  N12     30.18S
MADRAS AIRPORT  MOCLDY      57  32  38  N7      30.20R
PRINEVILLE AP   SUNNY       55  28  35  N14     30.17S
REDMOND AIRPORT SUNNY       58  29  33  N14     30.17S
#ASHWOOD SCHOOL N/A         58  31  36  N3      30.12R
#BEND 1SW       N/A         52  32  46  NE1     N/A
#BEND-AWBREY    N/A         58  32  37  NW6     30.20R
#BEND-KIM LN    N/A         55  33  43  N2      30.14R
#CULVER         N/A         56  32  40  NE3     30.02R
#CULVER 8W      N/A         58  29  33  CALM    30.16S
#LAKE BILLY CHINN/A         58  N/A N/A N8      30.21R
#POWELL BUTTE   N/A         54  29  38  N5      30.11R
#PRINEVILLE     N/A         59  32  36  CALM    30.25S
#PRINEVILLE 3N  N/A         56  32  40  W12     30.17R

$$


ORZ509-200210-
EAST SLOPES OF OREGON CASCADES

CITY            SKY/WX      TMP DP  RH  WIND    PRES   REMARKS
SISTERS AWOS    N/A         54  34  47  W13     30.14R
#BLUE BOX PASS  N/A         47  N/A N/A CALM    N/A
#CAMP SHERMAN   N/A         55  32  41  CALM    30.24R
#LA PINE 4NW    N/A         49  31  50  CALM    30.24R
#LAVA BUTTE DOT N/A         50  22  33  N2      N/A
#SISTERS ODOT   N/A         55  31  40  W5      N/A
#SISTERS 3N     N/A         53  30  41  CALM    30.17S
#SUNRIVER       N/A         52  32  46  NW2     30.21S
#TUMALO 3W      N/A         52  31  44  NW7     30.08S
#WANOGA BUTTE D N/A         40  N/A N/A NE7     N/A

$$

ORZ044-200210-
LOWER COLUMBIA BASIN...OREGON

CITY            SKY/WX      TMP DP  RH  WIND    PRES   REMARKS
HERMISTON       MOSUNNY     68  32  26  W8      30.13S
#BOARDMAN SCHOOLN/A         67  35  30  W3      30.12F
#BOARDMAN 8SW   N/A         66  36  33  W2      30.14F
#ECHO 8SW       N/A         66  32  28  CALM    30.15S
#I-84 EX 198 DOTN/A         64  31  29  E2      N/A
#IONE SCHOOL    N/A         63  32  31  NW1     30.16S
#UMATILLA       N/A         70  34  26  CALM    30.05F
$$

ORZ507-200210-
NORTHERN FOOTHILLS OF THE BLUES

CITY            SKY/WX      TMP DP  RH  WIND    PRES   REMARKS
PENDLETON AIRPT SUNNY       63  27  25  NW6     30.14S
#ADAMS 3WNW     N/A         61  35  38  N5      30.14S
#ATHENA         N/A         61  35  38  NW2     30.17S
#CAYUSE         N/A         61  36  39  N6      30.13F
#HELIX SCHOOL   N/A         60  35  39  N3      30.15S
#HELIX 3N       N/A         58  34  40  NW8     30.15R
#HOLDMAN 5SE    N/A         62  33  34  CALM    30.13S
#HOLDMAN 6E     N/A         60  34  37  W6      29.96S
#M-F GROVE ELEM N/A         64  30  28  CALM    30.10S
#M-FREEWATER 5SEN/A         65  41  41  CALM    30.12S
#PENDLETON DNTN N/A         65  34  31  CALM    N/A
#PDT AQUATIC CTRN/A         63  35  35  CALM    30.14S
#PDT SUNRIDGE   N/A         63  35  35  NW2     30.16S
#PENDLETON 6SE  N/A         64  36  35  N3      30.10F
#PENDLETON 7NW  N/A         64  39  40  CALM    27.38S
#PILOT ROCK 1S  N/A         58  30  34  W2      30.15S
#PILOT ROCK     N/A         61  32  33  CALM    30.15S
#TUTUILLA       N/A         60  36  41  CALM    30.19F
#UMAPINE 2E     N/A         68  42  39  CALM    30.10S

$$

ORZ508-200210-
SOUTHERN FOOTHILLS OF THE BLUES

CITY            SKY/WX      TMP DP  RH  WIND    PRES   REMARKS
#AJAX           N/A         59  28  30  CALM    30.30S
#CONDON 5W      N/A         52  34  50  CALM    30.14S
#FOSSIL SCHOOL  N/A         57  33  40  N7      30.09S
#HEPPNER EOC    N/A         61  33  35  N3      30.10F
#HEPPNER 4NE    N/A         54  32  43  N1      30.18F
#LEXINGTON 2SE  N/A         63  32  31  CALM    30.12F
#MIKKALO        N/A         62  29  28  N5      30.25F
#OLEX 4N        N/A         63  38  39  CALM    30.13F
#RUGGS 5NE      N/A         59  31  34  VRB2    30.33S
#RUGGS 2SW      N/A         55  31  40  N3      30.21S

$$

ORZ502-503-200210-
BLUE MOUNTAINS

CITY            SKY/WX      TMP DP  RH  WIND    PRES   REMARKS
MEACHAM         PTCLDY      50  32  50  VRB7    30.15S
#BATTLE MTN DOT N/A         47  23  38  N6      N/A
#GRANITE        N/A         49  23  36  N3      29.77R
#HEPPNER 15SE   N/A         47  32  56  W3      25.66S
#LADD CYN SMT   N/A         54  28  36  W14     N/A
#LADD CREEK ODOTN/A         57  30  35  CALM    N/A
#N POWDER DOT   N/A         56  29  35  N20     N/A
#PIKES PEAK     N/A         53  34  48  W2      27.99S
#SUMMERVILLE 5NWN/A         53  36  52  NW9     26.75R
#TOLLGATE       N/A         43  34  70  NE2     30.17R
#TROY SCHOOL    N/A         65  33  30  CALM    29.92R
#UKIAH          N/A         51  31  46  N13     30.09S
#WESTON 4E      N/A         54  37  52  CALM    30.13S
$$

ORZ505-200210-
JOHN DAY BASIN

CITY            SKY/WX      TMP DP  RH  WIND    PRES   REMARKS
JOHN DAY        SUNNY       55  29  37  N18G25  30.12R
#ANTELOPE 9ESE  N/A         63  29  28  W1      N/A
#MITCHELL 8NW   N/A         54  30  40  CALM    30.24S
#MONUMENT HS    N/A         62  26  25  NW7     30.08R
#MT. VERNON 5SE N/A         52  28  39  N7      30.06R
$$

ORZ506-200210-
OCHOCO AND JOHN DAY HIGHLANDS

CITY            SKY/WX      TMP DP  RH  WIND    PRES   REMARKS
#HORSE RIDGE DO N/A         51  29  42  N10     N/A
#KEYES SMT DOT  N/A         49  26  40  NW8     N/A
#PAULINA ODOT   N/A         54  29  38  N8      N/A
#PINE MTN OBS   N/A         38  31  76  NW6     N/A
#PRAIRIE CITY   N/A         57  28  33  CALM    30.23R
#SENECA         N/A         51  N/A N/A N7      N/A
#SENECA 9NW     N/A         50  28  42  N2      30.11R
$$

ORZ049-200210-
GRANDE RONDE VALLEY

CITY            SKY/WX      TMP DP  RH  WIND    PRES   REMARKS
LA GRANDE       PTCLDY      57  31  37  W21G25  30.10R
#COVE SCHOOL    N/A         57  38  49  CALM    30.09R
#COVE 6NW       N/A         56  36  47  NW13    30.09R
#ELGIN 3N       N/A         60  28  29  SW3     30.08R
#ELGIN 1E       N/A         59  34  39  W7      N/A
#IMBLER SCHOOL  N/A         54  34  47  N7      30.05R
#ISLAND CITY 4N N/A         66  37  34  N1      30.22S
#LADD CYN DOT   N/A         56  33  42  W16     N/A
#UNION 1S       N/A         57  34  42  NW5     30.07R
$$

ORZ050-200210-
WALLOWA COUNTY

CITY            SKY/WX      TMP DP  RH  WIND    PRES   REMARKS
#ENTERPRISE HS  N/A         55  29  37  N5      29.97R
#IMNAHA SCHOOL  N/A         61  25  25  W6      30.06R
#IMNAHA 10S     N/A         58  29  33  E1      30.06R
#JOSEPH         N/A         52  24  33  N5      30.28R
#JOSEPH 3N      N/A         53  22  29  VRB2    30.12R
#JOSEPH 3W      N/A         50  32  50  CALM    29.95R
#LOSTINE        N/A         58  30  34  NE3     29.89R
#LOSTINE 3SE    N/A         55  27  34  E6      30.17R
#MT HOWARD 8000 N/A         33  22  63  N3      30.11S
#PROMISE 1S     N/A         53  31  43  W8      30.20R
#WALLOWA LAKE   N/A         51  30  44  CALM    30.12R
#WALLOWA SCHOOL N/A         58  30  34  N2      30.05R



$$



USA.gov is the U.S. government's official web portal to all federal, state and local government web resources and services.